{"data":{"norad_id":66505,"epoch":"2026-09-20T11:27:49.683168Z","epoch_age_seconds":91562,"freshness":"FRESH","line1":"1 66505U 25263W   26263.47765837  .00009646  00000+0  35950-3 0  9995","line2":"2 66505  43.0024 330.2546 0001262 292.7160  67.3559 15.27590327 48691","mean_motion":15.27590327,"eccentricity":0.0001262,"inclination_deg":43.0024,"raan_deg":330.2546,"arg_perigee_deg":292.716,"mean_anomaly_deg":67.3559,"bstar":0.0003595,"rev_number":4869,"period_min":94.26611144023,"perigee_km":482.15229567785,"apogee_km":483.88405124363,"semimajor_km":6861.1551734607,"source":"CELESTRAK","updated_at":"2026-09-21T09:00:35.923358Z"}}